This is the latest recevied weather packets stored in our database for station/object OK2ZAW-21. If no packets are shown the sender has not sent any weather packets the latest 10 day(s).
| Time | Temp. | Humidity | Pressure | Rain* | Wind** | Luminosity | Snow |
|---|---|---|---|---|---|---|---|
| 1788012644 | 23.33° C | 48% | 1019.9 hPa | - | - | 422 W/m² | - |
| 1788012332 | 22.78° C | 50% | 1019.9 hPa | - | - | 422 W/m² | - |
| 1788012020 | 22.78° C | 51% | 1019.9 hPa | - | - | 422 W/m² | - |
| 1788011708 | 22.78° C | 47% | 1019.9 hPa | - | - | 422 W/m² | - |
| 1788011397 | 25° C | 46% | 1020 hPa | - | - | 422 W/m² | - |
| 1788011085 | 23.33° C | 48% | 1019.9 hPa | - | - | 422 W/m² | - |
| 1788010773 | 22.78° C | 50% | 1020 hPa | - | - | 422 W/m² | - |
| 1788010461 | 22.78° C | 52% | 1020 hPa | - | - | 422 W/m² | - |
| 1788009838 | 22.22° C | 56% | 1019.9 hPa | - | - | 422 W/m² | - |
| 1788009652 | 22.22° C | 56% | 1020 hPa | - | - | 422 W/m² | - |
| 1788009526 | 22.22° C | 56% | 1020 hPa | - | - | 422 W/m² | - |
| 1788009215 | 21.67° C | 57% | 1020.1 hPa | - | - | 422 W/m² | - |
| 1788008903 | 21.67° C | 60% | 1020.1 hPa | - | - | 422 W/m² | - |
| 1788008600 | 21.67° C | 60% | 1020.2 hPa | - | - | 422 W/m² | - |
| 1788008280 | 20.56° C | 66% | 1020.1 hPa | - | - | 422 W/m² | - |
| 1788007969 | 20.56° C | 67% | 1020 hPa | - | - | 422 W/m² | - |
| 1788007657 | 21.11° C | 62% | 1020.1 hPa | - | - | 423 W/m² | - |
| 1788007346 | 22.22° C | 60% | 1020.2 hPa | - | - | 423 W/m² | - |
| 1788007034 | 22.22° C | 67% | 1020.1 hPa | - | - | 423 W/m² | - |
| 1788006723 | 21.67° C | 66% | 1020.1 hPa | - | - | 423 W/m² | - |
| 1788006411 | 21.11° C | 73% | 1020.1 hPa | - | - | 423 W/m² | - |
| 1788006100 | 20.56° C | 79% | 1020.2 hPa | - | - | 423 W/m² | - |
| 1788005788 | 20° C | 77% | 1020.2 hPa | - | - | 423 W/m² | - |
| 1788005477 | 22.22° C | 67% | 1020.2 hPa | - | - | 423 W/m² | - |
| 1788005165 | 21.11° C | 72% | 1019.8 hPa | - | - | 423 W/m² | - |
* Rain since midnight (hover to see other rain measurements)
** Current wind speed in m/s (hover to see current wind gust speed)